Home > Weather > Maraimalai Nagar > Past weeks

Flag for India Past Weather in Maraimalai Nagar, Tamil Nadu, India — Yesterday and Last 2 Weeks

Now
86 °F

Passing clouds.


Feels Like: 97 °F
Forecast: 80 / 92 °F
Wind: 6 mph from South

Location: Madras / Minambakkam

Current Time: Aug 26, 2016 at 12:20:12 AM

Latest Report: Aug 25, 2016 at 11:30 PM


Visibility: 4 mi

Pressure: 29.65 "Hg

Humidity: 75%

Dew Point: 77 °F

Location of Maraimalai NagarLocation

Past Weather in Maraimalai Nagar — Graph

°F

Maraimalai Nagar Temperature Yesterday

Maximum temperature yesterday: 93 °F (at 1:30 PM)
Minimum temperature yesterday: 82 °F (at 2:00 AM)
Average temperature yesterday: 86 °F

High & Low Weather Summary for the Past Weeks

 TemperatureHumidityPressure
High100 °F (Aug 18, 2:00 PM)89% (Aug 11, 1:00 AM)29.77 "Hg (Aug 11, 1:00 AM)
Low77 °F (Aug 24, 1:30 AM)33% (Aug 16, 4:30 PM)29.50 "Hg (Aug 17, 4:30 PM)
Average89 °F62%29.65 "Hg
* Reported Aug 10 11:30 PM — Aug 25 11:30 PM, Maraimalai Nagar, Weather by CustomWeather, © 2016

Note: Actual official high and low records may vary slightly from our data, if they occured in-between our weather recording intervals... More about our weather records

Advertising

Maraimalai Nagar Weather History for the Previous 24 Hours

Scroll right to see more
 ConditionsComfort  
Time TempWeatherWind HumidityBarometerVisibility
11:30 PM
Thu, Aug 25
86 °FPassing clouds.6 mph75%29.65 "Hg4 mi
11:00 PM86 °FPassing clouds.6 mph75%29.65 "Hg4 mi
10:30 PM86 °FPassing clouds.6 mph70%29.65 "Hg4 mi
10:00 PM86 °FPassing clouds.6 mph70%29.65 "Hg4 mi
9:30 PM86 °FPassing clouds.No wind70%29.65 "Hg4 mi
9:00 PM86 °FPartly cloudy.No wind66%29.65 "Hg4 mi
8:30 PM86 °FPartly cloudy.No wind66%29.65 "Hg4 mi
8:00 PM88 °FPartly cloudy.No wind62%29.65 "Hg4 mi
7:30 PM88 °FPartly cloudy.No wind59%29.65 "Hg4 mi
7:00 PM88 °FPartly cloudy.No wind59%29.65 "Hg4 mi
6:30 PM88 °FBroken clouds.3 mph59%29.62 "Hg4 mi
6:00 PM88 °FScattered clouds.5 mph59%29.59 "Hg4 mi
5:30 PM90 °FPartly sunny.5 mph59%29.59 "Hg4 mi
5:00 PM90 °FPartly sunny.5 mph59%29.59 "Hg4 mi
4:30 PM90 °FBroken clouds.5 mph59%29.59 "Hg4 mi
4:00 PM90 °FBroken clouds.5 mph59%29.59 "Hg4 mi
3:30 PM90 °FBroken clouds.5 mph59%29.59 "Hg4 mi
3:00 PM90 °FBroken clouds.3 mph55%29.62 "Hg4 mi
2:30 PM90 °FBroken clouds.3 mph55%29.62 "Hg4 mi
2:00 PM91 °FBroken clouds.6 mph56%29.65 "Hg4 mi
1:30 PM93 °FBroken clouds.9 mph49%29.65 "Hg4 mi
1:00 PM91 °FBroken clouds.12 mph52%29.65 "Hg4 mi
12:30 PM91 °FPartly sunny.9 mph56%29.68 "Hg4 mi
12:00 PM88 °FPartly sunny.7 mph70%29.68 "Hg3 mi
11:30 AM86 °FBroken clouds.6 mph75%29.68 "Hg2 mi
11:00 AM84 °FBroken clouds.7 mph84%29.71 "Hg2 mi
10:30 AM82 °FDrizzle. Broken clouds.7 mph89%29.71 "Hg2 mi
10:00 AM82 °FDrizzle. Broken clouds.7 mph89%29.71 "Hg2 mi
9:30 AM82 °FDrizzle. Broken clouds.7 mph84%29.74 "Hg2 mi
9:00 AM82 °FBroken clouds.7 mph84%29.71 "Hg3 mi
8:30 AM82 °FBroken clouds.8 mph84%29.71 "Hg4 mi
8:00 AM82 °FPartly sunny.9 mph84%29.71 "Hg4 mi
7:30 AM82 °FPartly sunny.9 mph84%29.68 "Hg4 mi
7:00 AM82 °FScattered clouds.9 mph84%29.68 "Hg4 mi
6:30 AM82 °FScattered clouds.9 mph84%29.68 "Hg4 mi
6:00 AM82 °FPassing clouds.8 mph84%29.65 "Hg4 mi
5:30 AM82 °FPassing clouds.7 mph84%29.65 "Hg4 mi
5:00 AM82 °FPassing clouds.12 mph84%29.65 "Hg4 mi
4:30 AM82 °FPassing clouds.12 mph84%29.62 "Hg4 mi
4:00 AM82 °FPassing clouds.9 mph84%29.62 "Hg4 mi
3:30 AM82 °FPassing clouds.9 mph79%29.62 "Hg4 mi
3:00 AM82 °FPassing clouds.6 mph79%29.62 "Hg4 mi
2:30 AM82 °FPassing clouds.6 mph79%29.62 "Hg4 mi
2:00 AM82 °FPassing clouds.5 mph79%29.62 "Hg4 mi
1:30 AM84 °FPassing clouds.5 mph79%29.62 "Hg4 mi
1:00 AM84 °FPassing clouds.7 mph79%29.62 "Hg4 mi
12:30 AM84 °FPassing clouds.8 mph74%29.65 "Hg4 mi
12:00 AM86 °FPassing clouds.12 mph70%29.65 "Hg4 mi
Weather by CustomWeather, © 2016

See weather overviewHow to use our weather pages